Showing default

TJS-12, 62374

Orbit data source: Space-Track

TJS-12, 62374 is a payload satellite owned by PLA SSF (CN) in GEO that was launched on Fri, 20 Dec 2024 UTC via a CHANG ZHENG 3B launch vehicle from the Xichang Space Center, China (XSC). Payload-class satellites include a variety of spacecraft equipped with specific instruments for various scientific and technological missions. These include communications satellites like Starlink; space stations such as the ISS; scientific satellites like the Hubble; Earth observation satellites from companies like Planet Labs, Umbra, and HawkEye 360; GPS; miniature CubeSats for education and research; and military/defense satellites.

Not visible in the next 10 days
Identifier
62374, 2024-246A
Orbit
GEO
Country
Flag of CNCN / PRC
Related business
Manufacturer
SISE
Mission
Operational Defense Early Warn
Bus & Motor
FY-4?, LAE
Mass
~5,000 kg wet, ~2,500 kg dry
Launch date (UTC)
2024-12-20 (1 year ago)
Launch vehicle
CHANG ZHENG 3B
Launch site
Xichang Space Center, China (XSC)
Object type
Payload
Rocket body
Debris
Shape & HBR
Box + 2 Pan, 15.0 m
Radar Cross Section
34.063 m², Large (>1 m²)

Expand to show TLE details & history
Last TLE update: 8 hours ago

TLE from 8 hours ago
0 TJS-12
1 62374U 24246A   26171.49610767 -.00000236  00000-0  00000+0 0  9998
2 62374   0.6621 299.5247 0002075  85.3216 208.9729  1.00269051  5596
Epoch: 2026-06-20T11:54Z
TLE epoch observation values (Epoch: 2026-06-20T11:54:23.702Z)
Latitude
-0.6196°
Longitude
146.51134°
Altitude
35,794.582 km
Speed
3.074 km/s
True Right ascension
15h 35m 16s
True Declination
0° 37' 08"
Sunlit
Object was in daylight at epoch
Visualization orbit readout
Latitude
Unknown
Longitude
Unknown
Altitude
Unknown
Speed
Unknown
Apparent Right ascension
Unknown
Apparent Declination
Unknown
Sunlit
N/A
Visualization observer readout
Local Sidereal Time
07:19:51
Azimuth
Unknown
Elevation
Unknown
Doppler factor
Unknown
Orbital elements
Apogee altitude
35,797.181 km
Perigee altitude
35,779.682 km
Semi-major axis
42,166.569 km
Eccentricity
0.00021
Inclination
0.6621°
RAAN
299.5247°
Arg. of periapsis
85.3216°
True anomaly
208.96138°
Mean anomaly
208.9729°
Eccentric anomaly
208.96714°
Mean motion
0.25066 °/min
Orbital period
1,436.19 mins
BSTAR
0
Loading maneuver chart data...
Computing Atmospheric mass density...
Loading historical data...
Loading historical data...
Loading historical data...
Loading historical data...
Loading historical data...
Loading historical data...
Loading historical data...
Other satellites on launch #246 in the year 2024 (2024-12-20 UTC)

Documentation

Showing up to 5 results
|